DAL221 MMTJ-KLAX

Flight info

Callsign DAL221
Flight time 0h 24m
Altitude 14000
Route MZB DCT OCN DCT ELB
Aircraft A20N/M-SDE2E3FGHIRWXY/LB1

Departure

Time 2026-04-22 05:17
Airport General Abelardo L. Rodriguez International Airport (MMTJ)

Arrival

Time 2026-04-22 05:42
Airport Los Angeles International Airport (KLAX)
Time Latitude Longitude Altitude Speed Heading
2026-04-22 04:58 32.54497 -116.97509 470 ft 0 kts 74°
2026-04-22 05:04 32.54494 -116.97521 466 ft 2 kts 74°
2026-04-22 05:05 32.54490 -116.97535 478 ft 2 kts 74°
2026-04-22 05:05 32.54487 -116.97550 472 ft 2 kts 74°
2026-04-22 05:05 32.54483 -116.97564 473 ft 2 kts 88°
2026-04-22 05:05 32.54487 -116.97578 470 ft 2 kts 163°
2026-04-22 05:06 32.54490 -116.97580 468 ft 2 kts 189°
2026-04-22 05:06 32.54495 -116.97578 469 ft 0 kts 192°
2026-04-22 05:11 32.54492 -116.97579 475 ft 2 kts 192°
2026-04-22 05:12 32.54461 -116.97587 473 ft 7 kts 192°
2026-04-22 05:12 32.54413 -116.97591 471 ft 5 kts 146°
2026-04-22 05:12 32.54394 -116.97550 472 ft 7 kts 103°
2026-04-22 05:12 32.54384 -116.97485 470 ft 9 kts 98°
2026-04-22 05:13 32.54356 -116.97416 475 ft 10 kts 153°
2026-04-22 05:13 32.54317 -116.97340 469 ft 13 kts 100°
2026-04-22 05:13 32.54303 -116.97208 472 ft 18 kts 98°
2026-04-22 05:13 32.54277 -116.97046 471 ft 22 kts 98°
2026-04-22 05:14 32.54252 -116.96847 468 ft 27 kts 100°
2026-04-22 05:14 32.54222 -116.96617 469 ft 30 kts 97°
2026-04-22 05:14 32.54190 -116.96368 468 ft 31 kts 99°
2026-04-22 05:14 32.54162 -116.96149 469 ft 12 kts 101°
2026-04-22 05:15 32.54131 -116.96135 469 ft 6 kts 202°
2026-04-22 05:15 32.54068 -116.96168 470 ft 10 kts 188°
2026-04-22 05:15 32.54021 -116.96181 469 ft 1 kts 220°
2026-04-22 05:15 32.54010 -116.96203 469 ft 5 kts 243°
2026-04-22 05:16 32.54004 -116.96248 470 ft 7 kts 273°
2026-04-22 05:16 32.54007 -116.96268 470 ft 1 kts 279°
2026-04-22 05:16 32.54030 -116.96446 471 ft 57 kts 279°
2026-04-22 05:16 32.54123 -116.97179 471 ft 119 kts 278°
2026-04-22 05:17 32.54281 -116.98317 655 ft 145 kts 277°
2026-04-22 05:17 32.54443 -116.99472 1280 ft 150 kts 279°
2026-04-22 05:17 32.54617 -117.00728 1847 ft 152 kts 279°
2026-04-22 05:17 32.54759 -117.01938 2458 ft 154 kts 278°
2026-04-22 05:18 32.55410 -117.04621 3147 ft 191 kts 311°
2026-04-22 05:18 32.56483 -117.05669 3475 ft 210 kts 324°
2026-04-22 05:18 32.57785 -117.06621 3721 ft 232 kts 328°
2026-04-22 05:19 32.59245 -117.07638 4101 ft 254 kts 327°
2026-04-22 05:19 32.60779 -117.08753 4920 ft 261 kts 326°
2026-04-22 05:19 32.62321 -117.09918 5915 ft 264 kts 324°
2026-04-22 05:19 32.63851 -117.11105 6854 ft 269 kts 322°
2026-04-22 05:20 32.65415 -117.12337 7814 ft 271 kts 322°
2026-04-22 05:20 32.66993 -117.13588 8747 ft 276 kts 321°
2026-04-22 05:20 32.68600 -117.14863 9664 ft 280 kts 321°
2026-04-22 05:20 32.70234 -117.16160 10438 ft 290 kts 320°
2026-04-22 05:21 32.71972 -117.17548 10762 ft 313 kts 321°
2026-04-22 05:21 32.73849 -117.19047 11110 ft 333 kts 321°
2026-04-22 05:21 32.75944 -117.20313 11890 ft 344 kts 334°
2026-04-22 05:21 32.78203 -117.21313 12701 ft 348 kts 334°
2026-04-22 05:22 32.80490 -117.22313 13524 ft 353 kts 334°
2026-04-22 05:22 32.82775 -117.23315 13984 ft 356 kts 334°
2026-04-22 05:22 32.85086 -117.24339 14135 ft 357 kts 334°
2026-04-22 05:22 32.87420 -117.25383 14168 ft 358 kts 334°
2026-04-22 05:23 32.89744 -117.26413 14165 ft 356 kts 334°
2026-04-22 05:23 32.92067 -117.27444 14160 ft 356 kts 334°
2026-04-22 05:23 32.94392 -117.28479 14157 ft 357 kts 334°
2026-04-22 05:23 32.96718 -117.29515 14154 ft 357 kts 334°
2026-04-22 05:24 32.99042 -117.30552 14151 ft 357 kts 334°
2026-04-22 05:24 33.01366 -117.31590 14148 ft 357 kts 334°
2026-04-22 05:24 33.03657 -117.32614 14145 ft 357 kts 334°
2026-04-22 05:24 33.05982 -117.33654 14156 ft 357 kts 334°
2026-04-22 05:25 33.08307 -117.34695 14161 ft 357 kts 333°
2026-04-22 05:25 33.10630 -117.35733 14156 ft 357 kts 333°
2026-04-22 05:25 33.12955 -117.36773 14156 ft 357 kts 333°
2026-04-22 05:25 33.15277 -117.37813 14155 ft 356 kts 333°
2026-04-22 05:26 33.17564 -117.38838 14158 ft 357 kts 333°
2026-04-22 05:26 33.19925 -117.39897 14156 ft 357 kts 333°
2026-04-22 05:26 33.22248 -117.40939 14156 ft 356 kts 333°
2026-04-22 05:26 33.24512 -117.42105 14156 ft 352 kts 326°
2026-04-22 05:27 33.26587 -117.43557 14165 ft 350 kts 323°
2026-04-22 05:27 33.28668 -117.45059 14164 ft 350 kts 323°
2026-04-22 05:27 33.30753 -117.46554 14168 ft 349 kts 323°
2026-04-22 05:27 33.32835 -117.48044 14160 ft 349 kts 323°
2026-04-22 05:28 33.34916 -117.49536 14162 ft 349 kts 323°
2026-04-22 05:28 33.36999 -117.51031 14160 ft 349 kts 323°
2026-04-22 05:28 33.39081 -117.52525 14156 ft 349 kts 323°
2026-04-22 05:28 33.41164 -117.54022 14155 ft 349 kts 323°
2026-04-22 05:29 33.43242 -117.55518 14150 ft 349 kts 323°
2026-04-22 05:29 33.45294 -117.56995 14147 ft 349 kts 323°
2026-04-22 05:29 33.47375 -117.58494 14146 ft 349 kts 323°
2026-04-22 05:29 33.49458 -117.59994 14167 ft 349 kts 323°
2026-04-22 05:30 33.51540 -117.61489 14149 ft 348 kts 322°
2026-04-22 05:30 33.53613 -117.62984 14147 ft 346 kts 322°
2026-04-22 05:30 33.55636 -117.64438 14150 ft 338 kts 322°
2026-04-22 05:30 33.57728 -117.65962 14152 ft 365 kts 322°
2026-04-22 05:31 33.59976 -117.67603 14157 ft 391 kts 323°
2026-04-22 05:31 33.62369 -117.69344 14159 ft 413 kts 323°
2026-04-22 05:31 33.64855 -117.71147 14161 ft 432 kts 323°
2026-04-22 05:31 33.67346 -117.73214 14256 ft 431 kts 319°
2026-04-22 05:32 33.69729 -117.75316 14364 ft 419 kts 319°
2026-04-22 05:32 33.71972 -117.77408 14175 ft 395 kts 311°
2026-04-22 05:32 33.73728 -117.79780 14165 ft 367 kts 303°
2026-04-22 05:32 33.75250 -117.82119 14144 ft 345 kts 303°
2026-04-22 05:33 33.76717 -117.84302 14150 ft 329 kts 304°
2026-04-22 05:33 33.78222 -117.86415 14152 ft 337 kts 306°
2026-04-22 05:33 33.79790 -117.88508 14115 ft 335 kts 307°
2026-04-22 05:33 33.81374 -117.90552 13875 ft 332 kts 307°
2026-04-22 05:34 33.82910 -117.92501 13766 ft 319 kts 307°
2026-04-22 05:34 33.84422 -117.94412 13424 ft 313 kts 307°
2026-04-22 05:34 33.85915 -117.96308 12928 ft 311 kts 307°
2026-04-22 05:34 33.87387 -117.98180 12492 ft 302 kts 307°
2026-04-22 05:35 33.88790 -117.99955 12287 ft 284 kts 307°
2026-04-22 05:35 33.90133 -118.01662 11767 ft 279 kts 307°
2026-04-22 05:35 33.91458 -118.03357 11188 ft 277 kts 307°
2026-04-22 05:35 33.92763 -118.05025 10853 ft 266 kts 307°
2026-04-22 05:36 33.93999 -118.06595 10611 ft 253 kts 307°
2026-04-22 05:36 33.95183 -118.08111 10077 ft 253 kts 307°
2026-04-22 05:36 33.96396 -118.09674 9315 ft 258 kts 308°
2026-04-22 05:36 33.97472 -118.11351 8589 ft 245 kts 291°
2026-04-22 05:37 33.97884 -118.13248 7921 ft 228 kts 269°
2026-04-22 05:37 33.97743 -118.15103 7183 ft 220 kts 262°
2026-04-22 05:37 33.97554 -118.16924 6412 ft 218 kts 262°
2026-04-22 05:37 33.97394 -118.18736 5597 ft 217 kts 263°
2026-04-22 05:38 33.97211 -118.20543 4793 ft 217 kts 263°
2026-04-22 05:38 33.97029 -118.22351 3974 ft 217 kts 263°
2026-04-22 05:38 33.96847 -118.24132 3184 ft 217 kts 263°
2026-04-22 05:38 33.96664 -118.25924 2525 ft 211 kts 264°
2026-04-22 05:39 33.96494 -118.27595 2222 ft 191 kts 264°
2026-04-22 05:39 33.96343 -118.29074 2013 ft 168 kts 264°
2026-04-22 05:39 33.96209 -118.30396 1779 ft 152 kts 264°
2026-04-22 05:39 33.96078 -118.31680 1572 ft 155 kts 264°
2026-04-22 05:40 33.95947 -118.32967 1362 ft 155 kts 263°
2026-04-22 05:40 33.95817 -118.34249 1015 ft 156 kts 264°
2026-04-22 05:40 33.95684 -118.35511 834 ft 149 kts 265°
2026-04-22 05:40 33.95601 -118.36719 843 ft 138 kts 264°
2026-04-22 05:41 33.95475 -118.37825 582 ft 128 kts 263°
2026-04-22 05:41 33.95370 -118.38845 395 ft 118 kts 263°
2026-04-22 05:41 33.95253 -118.39848 220 ft 120 kts 262°
2026-04-22 05:41 33.95148 -118.40827 122 ft 106 kts 260°
2026-04-22 05:42 33.95090 -118.41346 121 ft 19 kts 264°
2026-04-22 05:42 33.95087 -118.41370 124 ft 4 kts 262°
2026-04-22 05:42 33.95078 -118.41453 121 ft 17 kts 262°
2026-04-22 05:42 33.95056 -118.41641 125 ft 28 kts 261°
2026-04-22 05:43 33.94999 -118.41805 124 ft 18 kts 245°
2026-04-22 05:43 33.94923 -118.41944 124 ft 14 kts 233°
2026-04-22 05:43 33.94914 -118.41959 122 ft 0 kts 233°
2026-04-22 05:44 33.94906 -118.41973 122 ft 10 kts 233°
2026-04-22 05:44 33.94822 -118.42111 124 ft 25 kts 234°
2026-04-22 05:44 33.94726 -118.42233 123 ft 14 kts 191°
2026-04-22 05:44 33.94695 -118.42139 125 ft 18 kts 89°
2026-04-22 05:45 33.94716 -118.41984 124 ft 16 kts 80°
2026-04-22 05:45 33.94708 -118.41924 121 ft 6 kts 120°
2026-04-22 05:45 33.94706 -118.41885 124 ft 7 kts 84°
2026-04-22 05:45 33.94707 -118.41868 125 ft 0 kts 82°
2026-04-22 05:46 33.94709 -118.41854 125 ft 10 kts 82°
2026-04-22 05:46 33.94660 -118.41821 123 ft 12 kts 179°
2026-04-22 05:46 33.94563 -118.41804 124 ft 16 kts 167°
2026-04-22 05:46 33.94463 -118.41789 123 ft 10 kts 175°
2026-04-22 05:47 33.94440 -118.41740 123 ft 9 kts 86°
2026-04-22 05:47 33.94452 -118.41655 125 ft 10 kts 82°
2026-04-22 05:47 33.94456 -118.41613 125 ft 2 kts 85°
2026-04-22 05:47 33.94457 -118.41607 125 ft 3 kts 85°
2026-04-22 05:48 33.94457 -118.41604 125 ft 0 kts 84°